Regional Weather Roundup
Issued by NWS Raleigh/Durham, NC

Home | Current Version | Previous Version | Text Only | Print | Product List | Glossary On
Versions: 1 2 3 4 5 6 7 8 9 10 11 12 13 14 15 16 17 18 19 20 21 22 23 24 25 26 27 28 29 30 31 32 33 34 35 36 37 38 39 40 41 42 43 44 45 46 47 48 49 50
000
ASUS42 KRAH 280610
RWRRAH
NORTH CAROLINA WEATHER ROUNDUP
NATIONAL WEATHER SERVICE RALEIGH NC
100 AM EST FRI NOV 28 2014

NOTE: "FAIR" INDICATES FEW OR NO CLOUDS BELOW 12,000 FEET WITH NO
SIGNIFICANT WEATHER AND/OR OBSTRUCTIONS TO VISIBILITY.

NCZ001-053-055-056-065-067-280700-
WESTERN NORTH CAROLINA

CITY           SKY/WX    TMP DP  RH WIND       PRES   REMARKS
ASHEVILLE      CLOUDY    28  15  58 N16G23    30.28R WCI  16
JEFFERSON      FLURRIES  23  13  64 NW15G24   30.17F WCI  10
MORGANTON      CLOUDY    31  23  70 CALM      30.34F
HICKORY        PTCLDY    30  21  69 W6        30.29S WCI  24
RUTHERFORDTON  MOCLDY    32  17  54 N6        30.32R WCI  26
MOUNT AIRY     CLOUDY    34  19  55 NW3       30.28F
BOONE          FLURRIES  23  15  72 NW12G22   30.18F WCI  12
$$

NCZ021-022-025-041-071-084-088-280700-
CENTRAL NORTH CAROLINA

CITY           SKY/WX    TMP DP  RH WIND       PRES   REMARKS
CHARLOTTE      CLEAR     33  21  61 N8        30.31R WCI  26
GREENSBORO     PTCLDY    32  20  61 NW7       30.26F WCI  26
WINSTON-SALEM  MOCLDY    33  16  49 NW6       30.29S WCI  28
RALEIGH-DURHAM CLEAR     35  22  58 NW6       30.25F WCI  30
FORT BRAGG     CLEAR     33  28  80 W5        30.26S WCI  28
FAYETTEVILLE   CLEAR     36  28  73 NW6       30.26S WCI  31
BURLINGTON     CLEAR     34  19  54 W7        30.26F WCI  28
LAURINBURG     CLEAR     32  27  81 NW6       30.29S WCI  26
$$

NCZ011-015-027-028-043-044-047-080-103-280700-
NORTHEASTERN NORTH CAROLINA

CITY           SKY/WX    TMP DP  RH WIND       PRES   REMARKS
ROCKY MT-WILSO CLEAR     35  24  64 NW7       30.24S WCI  29
GREENVILLE     CLEAR     36  28  75 CALM      30.24R
WASHINGTON     CLEAR     36  27  71 NW5       30.22S WCI  32
ELIZABETH CITY CLOUDY    43  35  73 NW12      30.18F
MANTEO         CLOUDY    42  32  69 N16       30.16F
CAPE HATTERAS  PTCLDY    42  34  73 NW9G22    30.16S
$$

NCZ078-087-090-091-093-098-101-280700-
SOUTHEASTERN NORTH CAROLINA

CITY           SKY/WX    TMP DP  RH WIND       PRES   REMARKS
LUMBERTON      CLEAR     33  28  81 W5        30.27S WCI  29
GOLDSBORO      CLEAR     37  28  69 NW7       30.22F WCI  32
KINSTON        CLEAR     36  27  71 NW5       30.24S WCI  32
KENANSVILLE    CLEAR     36  29  75 NW6       30.25S WCI  31
NEW BERN       CLEAR     39  28  64 NW8       30.23R WCI  33
CHERRY POINT   CLEAR     41  27  57 NW20G26   30.22S
BEAUFORT       CLEAR     41  31  67 NW17      30.21R
JACKSONVILLE   CLEAR     37  31  78 NW9       30.23R WCI  30
WILMINGTON     CLEAR     36  31  82 NW6       30.24S WCI  31
$$



USA.gov is the U.S. government's official web portal to all federal, state and local government web resources and services.